Simultaneous Nadir Overpasses (SNOs) Predictions

Prediction of SNOs between TERRA and METOP-C Satellite Orbit:

Table of predicted SNOs for the next 14.0 days since TLE Epoch: 9/4/2021
Index Date (TERRA) Time (TERRA) Lat,Lon (TERRA) SZA (TERRA ) Date (METOP-C) Time (METOP-C) Lat,Lon (METOP-C) SZA (METOP-C ) Distance(km) Time Diff (sec)
1 09/04/2021 17:13:25 -81.30, 147.21 102.95 09/04/2021 17:12:12 -81.29, 147.25 102.99 0.92 73
2 09/04/2021 18:02:51 81.31, -45.03 77.08 09/04/2021 18:02:53 81.30, -45.22 77.06 3.36 2
3 09/04/2021 18:52:16 -81.34, 123.26 102.81 09/04/2021 18:53:30 -81.32, 123.29 102.79 2.75 74
4 09/07/2021 12:47:39 -81.28,-146.70 101.94 09/07/2021 12:46:33 -81.29,-146.58 101.95 2.38 66
5 09/07/2021 13:37:04 81.31, 21.40 78.15 09/07/2021 13:37:13 81.30, 21.28 78.14 2.08 9
6 09/10/2021 08:21:51 -81.30, -79.91 100.80 09/10/2021 08:20:53 -81.29, -80.03 100.85 2.32 58
7 09/10/2021 09:11:17 81.30, 87.79 79.22 09/10/2021 09:11:33 81.30, 87.76 79.23 0.48 16
8 09/13/2021 03:56:04 -81.30, -13.53 99.72 09/13/2021 03:55:13 -81.29, -13.51 99.74 0.48 51
9 09/13/2021 04:45:30 81.30, 154.14 80.30 09/13/2021 04:45:53 81.30, 154.23 80.33 1.52 23
10 09/15/2021 23:30:16 -81.29, 52.82 98.63 09/15/2021 23:29:32 -81.30, 53.01 98.63 3.21 44



Historial Predications of SNOs between TERRA and METOP-C
